sat.trackr.live / text

‹ back to catalog

STARLINK-4010

NORAD 52862 · 2022-062AJ

PAYLOAD ACTIVE UNKNOWN

§ Identity

Operator
Country
US
Launch date
2022-06-17
Launch site
AFETR
Launch vehicle
Mass (kg)
RCS (m²)

Purposes: comms

External: N2YO · Heavens-Above · Gunter

§ Orbital elements

Epoch: 2026-05-25T02:45:17.431776Z

Period
95.44 min
Inclination
53.2128°
Eccentricity
0.0001319
Mean motion
15.08836399 rev/d
Perigee alt
538.8 km
Apogee alt
540.7 km
Semi-major
6,917.9 km
B*
3.7202e-5
RAAN
41.0317°
Arg perigee
119.1236°
Mean anomaly
240.9888°
Rev number
21,746

§ Raw data

STARLINK-40101 52862U 22062AJ  26145.11478509  .00000304  00000+0  37202-4 0  99922 52862  53.2128  41.0317 0001319 119.1236 240.9888 15.08836399217460

JSON: /api/v1/satellites/52862 · /tle

For live sub-satellite position, see the globe view (requires WebGL).

§ Visibility from observer

Set your observer location to see the next 7 days of passes ≥ 10°. The values pass through the URL so the page stays shareable.

No JS? Fill the form by hand. The geolocation button needs JavaScript.